Showing default

SOLRAD 7B, 1291

Orbit data source: Space-Track

SOLRAD 7B, 1291 is an American payload satellite in LEO that was launched on Tue, 09 Mar 1965 UTC via a THOR SLV-2 AGENA D launch vehicle from the Air Force Western Test Range (AFWTR). Payload-class satellites include a variety of spacecraft equipped with specific instruments for various scientific and technological missions. These include communications satellites like Starlink; space stations such as the ISS; scientific satellites like the Hubble; Earth observation satellites from companies like Planet Labs, Umbra, and HawkEye 360; GPS; miniature CubeSats for education and research; and military/defense satellites.

Loading next visibility...
Identifier
1291, 1965-016D
Orbit
LEO
Country
Flag of USUS
Related business
Manufacturer
NRL
Mission
Spacecraft
Bus & Motor
NRL 24", Unknown motor
Mass
47 kg wet, 47 kg dry
Launch date (UTC)
1965-03-09 (61 years ago)
Launch vehicle
THOR SLV-2 AGENA D
Launch site
Air Force Western Test Range (AFWTR)
Object type
Payload
Rocket body
Debris
Shape & HBR
Unknown
Radar Cross Section
Medium (>0.1 m² and <1 m²)

Expand to show TLE details & history
Last TLE update: 10 hours ago

TLE from 10 hours ago
0 SOLRAD 7B
1 01291U 65016D   26038.75549661  .00000059  00000-0  82345-4 0  9993
2 01291  70.0796 151.4369 0023709 288.3542  71.4985 13.94957909 98654
Epoch: 2026-02-07T18:07Z
TLE epoch observation values (Epoch: 2026-02-07T18:07:54.907Z)
Latitude
-0.00001°
Longitude
101.58365°
Altitude
908.176 km
Speed
7.401 km/s
True Right ascension
10h 05m 44s
True Declination
0° 00' 00"
Sunlit
Object was in full shadow at epoch
Visualization orbit readout
Latitude
Unknown
Longitude
Unknown
Altitude
Unknown
Speed
Unknown
Apparent Right ascension
Unknown
Apparent Declination
Unknown
Sunlit
N/A
Visualization observer readout
Local Sidereal Time
06:47:48
Azimuth
Unknown
Elevation
Unknown
Doppler factor
Unknown
Orbital elements
Apogee altitude
926.621 km
Perigee altitude
892.066 km
Semi-major axis
7,287.481 km
Eccentricity
0.00237
Inclination
70.0796°
RAAN
151.4369°
Arg. of periapsis
288.3542°
True anomaly
71.75638°
Mean anomaly
71.4985°
Eccentric anomaly
71.62742°
Mean motion
3.48881 °/min
Orbital period
103.19 mins
BSTAR
0.000082345
Loading maneuver chart data...
Computing Atmospheric mass density...
Loading historical data...
Loading historical data...
Loading historical data...
Loading historical data...
Loading historical data...
Loading historical data...
Loading historical data...

Documentation

Showing up to 5 results
|